Temp
-17 -17 -14 -14 -14 -13 -13 -13 -13 -12 -13 -13 -13 -13 -13 -13 -12 -12 -11 -11 -11 -11 -11 -11 -11 -11 -11 -11 -11 -11 -12 -11 -11 -11 -11 -11 -11 -11 -11 -11 -11 -11 -11 -11
-19 -18 -16 -14 -14 -14 -14 -13 -13 -13 -13 -13 -13 -13 -13 -13 -12 -12 -12 -12 -11 -11 -11 -12 -12 -12 -12 -12 -12 -12 -12 -12 -11 -11 -11 -11 -11 -11 -11 -11 -11 -11 -12 -12
-19 -18 -17 -15 -14 -14 -14 -13 -13 -13 -13 -13 -13 -12 -13 -13 -13 -13 -12 -12 -12 -11 -11 -11 -12 -12 -12 -12 -12 -12 -12 -12 -12 -12 -12 -12 -12 -12 -12 -12 -12 -12 -12 -12
-20 -18 -17 -16 -15 -15 -14 -13 -13 -13 -13 -13 -13 -13 -13 -13 -13 -13 -12 -12 -12 -12 -11 -12 -12 -12 -12 -12 -12 -13 -13 -13 -13 -13 -12 -12 -12 -12 -12 -12 -12 -12 -12 -13
-20 -19 -19 -16 -16 -15 -14 -13 -13 -13 -13 -13 -13 -13 -12 -13 -13 -13 -12 -11 -11 -12 -12 -12 -12 -12 -12 -12 -12 -13 -13 -13 -13 -13 -13 -12 -12 -12 -12 -12 -12 -13 -12 -12
-19 -19 -17 -18 -17 -16 -14 -14 -13 -13 -13 -13 -13 -13 -13 -13 -13 -13 -13 -12 -11 -12 -12 -12 -12 -12 -12 -12 -12 -13 -13 -13 -13 -13 -13 -13 -13 -13 -13 -13 -12 -12 -12 -12
-20 -19 -17 -17 -16 -15 -14 -14 -14 -14 -13 -13 -13 -13 -13 -13 -13 -13 -13 -13 -12 -13 -13 -13 -12 -12 -12 -12 -13 -13 -13 -13 -13 -13 -13 -14 -13 -13 -12 -12 -12 -13 -13 -13
-20 -19 -17 -16 -16 -15 -15 -14 -14 -14 -13 -13 -13 -13 -13 -13 -13 -13 -13 -13 -12 -13 -13 -13 -13 -13 -13 -13 -13 -13 -13 -13 -13 -13 -13 -13 -13 -13 -13 -13 -13 -13 -13 -13
-19 -18 -17 -17 -17 -15 -15 -16 -15 -14 -14 -13 -14 -13 -13 -13 -13 -13 -13 -13 -13 -13 -13 -13 -13 -13 -13 -13 -13 -13 -13 -13 -13 -13 -13 -13 -13 -13 -13 -13 -13 -14 -14 -15
-19 -18 -18 -17 -17 -16 -17 -17 -16 -15 -15 -14 -14 -14 -13 -13 -13 -13 -13 -13 -13 -13 -13 -14 -14 -14 -14 -14 -14 -13 -13 -13 -13 -14 -14 -14 -14 -14 -13 -14 -14 -15 -14 -14
-19 -19 -19 -19 -19 -17 -17 -17 -17 -16 -16 -15 -14 -14 -14 -14 -14 -13 -14 -13 -13 -14 -14 -14 -14 -14 -14 -14 -15 -15 -15 -14 -14 -14 -14 -14 -14 -14 -14 -14 -14 -14 -14 -15
-20 -20 -20 -19 -20 -20 -19 -18 -17 -17 -17 -17 -16 -15 -15 -14 -14 -14 -14 -14 -14 -14 -14 -14 -14 -14 -15 -15 -15 -15 -15 -15 -14 -15 -15 -14 -15 -15 -15 -15 -15 -15 -15 -16
-22 -21 -21 -19 -20 -20 -20 -19 -18 -18 -17 -16 -16 -16 -15 -15 -15 -15 -16 -15 -15 -14 -14 -14 -15 -15 -14 -15 -15 -15 -14 -15 -15 -15 -15 -15 -15 -15 -15 -16 -16 -16 -16 -17
-22 -22 -21 -19 -19 -18 -18 -19 -19 -18 -18 -18 -17 -17 -16 -16 -16 -16 -16 -16 -15 -16 -15 -15 -14 -14 -15 -15 -15 -15 -15 -15 -15 -16 -16 -16 -16 -16 -16 -17 -17 -17 -17 -17
-22 -22 -22 -20 -19 -18 -17 -17 -18 -17 -17 -18 -17 -16 -16 -16 -16 -16 -16 -16 -15 -15 -15 -14 -15 -15 -15 -15 -15 -15 -15 -16 -16 -16 -16 -16 -16 -16 -17 -17 -17 -18 -18 -18
-22 -22 -22 -22 -19 -19 -18 -17 -16 -17 -16 -16 -15 -15 -15 -16 -16 -16 -15 -15 -15 -15 -15 -15 -15 -15 -15 -15 -15 -15 -15 -16 -16 -16 -16 -17 -17 -17 -18 -18 -19 -19 -19 -20
-22 -22 -21 -21 -21 -20 -19 -18 -17 -17 -16 -16 -15 -17 -15 -15 -16 -16 -15 -15 -15 -15 -15 -15 -15 -15 -15 -15 -15 -16 -16 -16 -16 -17 -17 -17 -18 -19 -19 -20 -20 -20 -21 -21
-22 -22 -21 -21 -21 -20 -20 -19 -18 -18 -17 -16 -16 -16 -16 -16 -16 -16 -16 -16 -16 -15 -15 -15 -15 -16 -16 -16 -16 -16 -16 -16 -17 -18 -18 -19 -20 -20 -20 -21 -21 -21 -21 -21
-22 -22 -22 -22 -21 -21 -21 -20 -19 -18 -18 -17 -17 -17 -16 -16 -16 -16 -16 -16 -16 -16 -16 -16 -16 -16 -16 -16 -17 -17 -17 -18 -18 -19 -20 -20 -21 -21 -21 -21 -21 -21 -21 -21
-22 -22 -22 -21 -21 -21 -21 -20 -20 -19 -19 -18 -18 -18 -17 -17 -17 -17 -16 -16 -16 -16 -17 -17 -17 -17 -17 -18 -18 -18 -18 -19 -20 -21 -21 -21 -21 -21 -21 -21 -21 -21 -21 -21
-23 -22 -21 -21 -20 -20 -20 -20 -20 -19 -19 -18 -18 -17 -17 -17 -17 -17 -17 -17 -17 -17 -17 -17 -18 -18 -18 -18 -19 -19 -20 -20 -21 -21 -21 -21 -21 -21 -21 -21 -21 -21 -22 -22
-23 -22 -21 -21 -20 -21 -20 -20 -20 -19 -19 -18 -18 -18 -17 -17 -17 -17 -17 -17 -17 -17 -17 -17 -17 -17 -18 -18 -19 -20 -21 -21 -21 -21 -21 -21 -21 -21 -21 -21 -22 -22 -23 -23
-23 -22 -22 -21 -22 -21 -21 -20 -20 -20 -19 -19 -18 -18 -18 -18 -18 -18 -17 -17 -17 -17 -17 -18 -18 -19 -20 -20 -21 -21 -21 -21 -21 -21 -21 -21 -21 -21 -22 -22 -23 -23 -23 -23
-24 -23 -22 -22 -22 -22 -21 -21 -20 -19 -19 -19 -18 -18 -18 -18 -18 -18 -18 -18 -18 -18 -18 -19 -19 -20 -20 -20 -21 -21 -21 -21 -21 -21 -21 -21 -21 -22 -23 -23 -23 -23 -23 -23
-24 -23 -22 -22 -22 -22 -22 -21 -20 -20 -20 -19 -19 -19 -19 -19 -19 -19 -19 -20 -20 -20 -20 -20 -20 -20 -20 -21 -21 -21 -21 -21 -21 -21 -21 -22 -23 -23 -23 -24 -23 -23 -23 -24
-23 -23 -22 -21 -21 -22 -21 -21 -21 -21 -21 -20 -20 -20 -20 -20 -20 -20 -20 -20 -20 -21 -21 -21 -21 -21 -21 -21 -21 -21 -21 -21 -21 -22 -23 -24 -23 -23 -23 -23 -23 -24 -24 -24
Height
5667 5674 5682 5704 5706 5709 5724 5730 5738 5745 5753 5759 5767 5774 5776 5782 5787 5794 5801 5805 5809 5813 5815 5821 5824 5826 5830 5833 5835 5837 5837 5837 5837 5838 5839 5839 5839 5838 5838 5837 5835 5833 5830 5828
5653 5659 5675 5684 5693 5703 5708 5718 5726 5736 5744 5750 5758 5763 5767 5773 5778 5786 5793 5799 5802 5805 5809 5814 5818 5821 5824 5825 5826 5828 5830 5830 5830 5832 5832 5832 5832 5831 5830 5829 5828 5825 5822 5819
5648 5661 5664 5675 5685 5692 5698 5706 5718 5727 5734 5740 5750 5754 5757 5765 5771 5775 5784 5791 5795 5798 5802 5806 5811 5814 5817 5820 5821 5822 5823 5824 5824 5823 5824 5824 5824 5823 5821 5820 5819 5817 5814 5810
5639 5650 5657 5665 5677 5685 5692 5704 5712 5717 5725 5731 5736 5741 5748 5756 5762 5766 5773 5782 5788 5792 5797 5799 5802 5805 5809 5812 5814 5815 5816 5817 5817 5816 5816 5816 5816 5814 5812 5810 5808 5806 5803 5799
5634 5640 5653 5661 5676 5680 5687 5692 5703 5710 5717 5722 5727 5734 5741 5747 5753 5759 5764 5771 5780 5786 5790 5792 5794 5797 5800 5802 5804 5806 5807 5809 5809 5809 5808 5807 5806 5804 5801 5798 5797 5795 5791 5787
5629 5635 5649 5660 5670 5676 5679 5690 5697 5702 5706 5709 5715 5725 5731 5737 5746 5751 5757 5763 5771 5778 5783 5785 5785 5788 5791 5793 5795 5797 5799 5800 5800 5800 5799 5798 5797 5794 5790 5788 5784 5783 5779 5776
5623 5630 5643 5656 5667 5670 5674 5681 5687 5689 5692 5697 5709 5717 5723 5730 5736 5741 5749 5757 5763 5768 5771 5774 5777 5779 5782 5784 5786 5788 5790 5790 5791 5791 5789 5788 5787 5786 5782 5779 5776 5773 5769 5766
5620 5631 5641 5653 5658 5662 5668 5673 5677 5678 5684 5694 5701 5705 5713 5722 5729 5736 5742 5747 5752 5755 5760 5764 5767 5771 5773 5774 5776 5779 5779 5782 5781 5781 5780 5778 5779 5775 5773 5770 5766 5762 5759 5757
5618 5626 5637 5642 5648 5655 5658 5664 5668 5673 5681 5689 5695 5702 5710 5718 5724 5730 5735 5739 5744 5749 5753 5757 5760 5763 5766 5769 5771 5772 5772 5772 5772 5773 5772 5771 5769 5767 5763 5760 5756 5752 5749 5746
5616 5624 5628 5634 5640 5648 5651 5661 5665 5667 5673 5680 5689 5698 5706 5713 5720 5725 5729 5733 5737 5742 5746 5750 5752 5754 5758 5761 5763 5763 5763 5763 5763 5763 5762 5761 5758 5756 5753 5750 5747 5743 5739 5734
5614 5619 5626 5629 5633 5641 5647 5654 5662 5668 5669 5675 5684 5695 5701 5707 5714 5720 5724 5727 5732 5736 5739 5742 5745 5748 5750 5752 5754 5756 5756 5756 5755 5755 5754 5752 5749 5747 5744 5742 5738 5734 5729 5724
5612 5615 5621 5623 5630 5636 5642 5650 5657 5663 5670 5676 5682 5690 5693 5700 5709 5714 5717 5721 5726 5730 5733 5736 5739 5742 5744 5746 5747 5747 5748 5748 5747 5746 5744 5742 5740 5736 5733 5730 5727 5723 5718 5713
5610 5614 5616 5619 5628 5636 5641 5646 5654 5658 5667 5672 5681 5687 5690 5696 5702 5708 5713 5717 5720 5725 5727 5730 5732 5735 5737 5737 5738 5739 5740 5739 5738 5737 5735 5732 5730 5726 5723 5719 5716 5711 5707 5702
5607 5612 5613 5619 5627 5634 5640 5646 5651 5657 5663 5668 5676 5682 5687 5692 5696 5702 5708 5712 5715 5717 5720 5722 5725 5728 5729 5729 5730 5731 5730 5729 5727 5726 5725 5722 5720 5717 5714 5710 5706 5701 5696 5691
5605 5610 5615 5620 5625 5631 5635 5642 5650 5655 5660 5667 5674 5679 5682 5687 5692 5697 5701 5707 5709 5710 5713 5715 5717 5720 5721 5721 5722 5722 5722 5721 5719 5717 5714 5712 5710 5707 5703 5699 5695 5690 5684 5678
5603 5608 5612 5616 5621 5625 5632 5639 5645 5650 5654 5661 5666 5671 5679 5683 5688 5691 5696 5700 5702 5704 5706 5709 5710 5712 5713 5713 5714 5714 5712 5711 5709 5709 5706 5703 5699 5696 5693 5688 5683 5677 5671 5665
5601 5604 5609 5613 5618 5624 5631 5634 5640 5645 5649 5656 5662 5666 5674 5678 5682 5685 5690 5693 5696 5699 5701 5703 5704 5705 5706 5706 5706 5706 5705 5703 5701 5698 5695 5691 5688 5685 5680 5676 5670 5664 5658 5652
5597 5602 5606 5612 5616 5621 5625 5630 5635 5640 5644 5649 5653 5661 5667 5671 5675 5679 5684 5687 5690 5692 5695 5696 5698 5699 5699 5699 5699 5697 5695 5693 5690 5687 5684 5680 5676 5671 5667 5662 5657 5651 5646 5640
5595 5600 5605 5611 5617 5622 5626 5628 5632 5637 5643 5648 5653 5657 5663 5667 5672 5675 5680 5683 5685 5687 5689 5690 5691 5692 5692 5690 5689 5687 5685 5683 5680 5676 5672 5668 5663 5659 5654 5650 5645 5641 5635 5630
5592 5597 5603 5608 5613 5618 5623 5626 5629 5635 5640 5644 5649 5653 5657 5664 5667 5670 5674 5676 5679 5680 5682 5682 5682 5682 5682 5681 5679 5677 5674 5671 5667 5663 5660 5656 5652 5648 5645 5640 5636 5631 5624 5617
5589 5593 5599 5603 5608 5614 5618 5623 5627 5633 5640 5641 5646 5650 5655 5659 5663 5666 5667 5669 5670 5672 5673 5673 5673 5672 5670 5668 5666 5663 5662 5661 5657 5655 5651 5648 5644 5640 5636 5630 5625 5618 5611 5603
5585 5589 5594 5600 5606 5614 5618 5623 5626 5631 5635 5639 5643 5647 5651 5654 5657 5659 5661 5663 5664 5665 5666 5666 5665 5663 5662 5660 5659 5657 5655 5652 5650 5646 5642 5638 5634 5630 5625 5619 5612 5605 5598 5591
5582 5586 5590 5597 5604 5609 5614 5619 5623 5627 5632 5636 5640 5643 5646 5648 5650 5653 5654 5656 5657 5657 5656 5656 5655 5654 5652 5651 5649 5648 5646 5644 5642 5638 5635 5630 5625 5619 5613 5606 5600 5594 5587 5579
5577 5579 5586 5593 5601 5606 5611 5616 5620 5624 5627 5631 5634 5637 5640 5642 5644 5646 5646 5647 5647 5647 5647 5646 5646 5645 5644 5644 5644 5642 5640 5637 5634 5629 5624 5619 5613 5607 5601 5595 5589 5581 5572 5564
5576 5578 5582 5590 5599 5605 5610 5613 5615 5619 5622 5625 5628 5630 5633 5634 5636 5637 5638 5639 5640 5641 5641 5641 5641 5640 5639 5639 5637 5635 5632 5628 5623 5617 5612 5607 5602 5596 5589 5582 5574 5566 5557 5548
5580 5580 5585 5591 5598 5604 5607 5610 5612 5614 5616 5618 5621 5623 5626 5628 5631 5633 5635 5636 5637 5637 5637 5636 5636 5635 5633 5631 5628 5625 5621 5616 5611 5606 5601 5596 5590 5583 5576 5568 5559 5551 5541 5531
Wind_Speed
76 77 60 55 51 49 56 54 51 48 51 60 60 60 56 50 49 46 43 42 40 40 39 37 34 31 29 29 27 26 27 29 31 30 32 32 32 33 33 35 37 38 39 41
71 83 67 45 43 49 46 53 47 50 50 53 57 56 62 58 51 49 44 43 42 41 36 36 35 34 33 30 30 30 30 32 33 32 33 33 34 35 36 38 40 42 42 44
65 74 77 53 40 39 51 47 48 52 49 52 53 62 66 65 55 50 48 48 44 42 40 38 38 36 33 33 33 32 32 32 33 33 34 35 36 38 39 42 43 45 47 51
48 74 79 53 33 35 41 42 48 49 51 53 55 55 59 58 61 58 54 50 47 48 42 40 36 37 36 35 35 34 34 35 36 36 37 39 41 42 42 46 49 50 54 52
56 52 66 69 40 38 43 48 47 44 46 47 56 59 49 60 60 61 57 50 47 46 47 45 43 44 42 42 42 41 38 38 39 40 40 42 45 49 52 53 50 53 52 45
56 53 67 62 43 36 34 39 39 43 50 51 56 49 55 46 49 62 60 57 53 39 46 50 50 45 39 40 43 42 40 37 41 43 44 52 54 49 53 53 40 48 47 42
49 56 53 55 46 43 31 43 44 43 51 52 47 42 47 44 42 49 59 52 56 52 56 53 50 41 43 42 41 39 42 44 45 51 50 49 42 48 40 49 53 45 47 56
52 49 53 52 37 39 41 38 44 45 49 39 41 42 41 39 33 36 41 42 43 38 47 55 55 48 39 44 48 48 44 50 49 44 38 34 43 40 47 42 51 45 48 47
50 50 58 57 43 43 43 22 26 32 46 44 40 38 37 39 35 31 27 27 29 30 32 42 51 55 57 55 49 50 49 41 39 37 29 36 41 49 45 46 50 43 44 47
47 49 55 66 43 46 28 24 25 32 40 45 41 38 34 29 27 26 26 27 27 28 29 27 27 34 44 46 40 33 31 31 29 31 35 37 45 40 45 44 45 44 49 51
39 39 44 52 64 51 36 30 26 24 27 34 39 36 33 31 29 29 28 27 26 25 25 24 25 27 27 24 24 23 25 24 25 26 31 38 36 40 43 44 51 53 53 54
30 33 38 39 49 47 48 40 32 25 23 19 27 35 29 32 30 27 24 25 27 27 25 26 28 27 19 21 27 25 24 28 31 34 36 39 43 44 46 50 52 53 52 52
19 15 24 40 39 37 39 38 35 29 27 21 20 21 22 19 20 18 18 20 21 20 20 20 17 18 23 24 27 30 32 33 35 40 43 43 44 46 48 49 49 49 50 52
24 11 17 28 35 33 32 28 29 29 28 21 19 16 20 22 20 23 18 20 20 17 18 17 19 23 30 31 33 35 37 39 39 40 42 43 44 45 45 46 47 48 50 52
31 20 18 22 27 28 29 32 31 31 25 23 21 20 22 25 21 18 19 22 24 22 23 24 28 30 32 32 33 35 36 37 38 38 37 37 39 41 44 46 48 51 53 55
32 26 24 21 22 26 27 28 27 26 26 27 26 24 26 28 26 25 25 27 29 27 27 26 26 27 28 28 29 29 29 31 31 34 35 37 40 44 47 49 51 54 55 55
33 31 27 25 21 24 25 25 28 28 27 26 22 24 26 28 28 27 27 25 23 23 23 22 23 22 22 23 25 27 29 31 33 36 39 42 45 47 49 51 52 52 52 53
36 33 32 28 25 24 20 25 26 26 24 23 24 23 22 22 22 23 23 23 22 23 22 22 22 22 22 23 25 28 32 35 38 41 44 46 45 47 49 50 51 52 52 52
33 37 36 30 28 25 20 23 25 25 25 25 27 26 24 23 23 23 23 23 23 22 22 21 21 21 23 25 29 33 36 39 41 43 43 43 46 48 49 50 49 49 51 55
28 30 28 25 25 25 22 23 22 25 24 23 23 23 23 22 21 23 22 23 22 21 20 21 22 24 28 32 35 38 38 39 40 40 42 46 47 49 47 46 48 53 58 62
25 28 27 27 25 22 23 24 22 22 23 24 24 24 23 24 23 21 20 20 20 20 22 26 28 31 34 36 36 39 40 38 43 43 45 44 42 42 45 50 56 60 62 59
23 29 29 28 25 23 21 23 23 21 23 23 23 23 23 23 24 23 23 24 25 27 28 31 33 36 39 41 41 39 39 37 42 39 37 38 42 47 53 58 59 56 57 61
18 27 31 30 24 22 23 23 22 22 21 22 22 22 23 23 24 24 25 27 30 32 34 37 39 39 38 36 33 34 33 33 34 35 40 45 49 55 54 51 55 57 60 63
11 23 31 32 26 25 24 24 23 23 24 24 24 24 24 25 27 29 31 32 34 35 37 35 32 29 27 26 28 28 28 32 37 42 46 52 53 48 51 53 56 60 63 65
7 11 21 30 28 23 20 22 25 26 27 27 27 28 29 29 29 29 28 27 25 24 23 24 25 25 24 23 26 29 33 39 44 49 51 45 47 50 54 56 60 65 67 69
16 18 15 16 19 17 15 11 13 17 20 20 21 21 20 20 19 18 16 16 19 23 25 25 21 21 25 28 32 36 41 46 49 43 44 47 52 55 58 61 66 69 71 73
Wind_Direction
209 218 200 206 205 211 221 217 219 218 219 221 224 220 226 227 228 227 229 232 233 234 234 235 237 239 239 241 243 246 250 252 256 260 264 268 273 277 280 282 283 286 288 290
209 218 207 194 203 215 212 217 217 225 220 224 222 227 226 224 229 228 224 227 231 233 236 238 241 241 240 240 243 248 252 258 263 267 272 275 277 279 281 284 286 287 289 293
212 214 214 200 197 206 217 212 213 218 218 220 222 215 228 226 231 231 223 221 226 228 232 240 240 240 241 244 247 250 253 258 263 267 269 272 275 278 282 285 287 288 289 293
207 215 216 203 202 218 208 216 224 218 214 217 224 227 227 227 228 230 230 222 221 231 233 237 242 243 243 246 249 252 255 259 263 266 270 274 276 279 281 286 286 286 289 290
208 214 219 212 220 209 206 205 213 222 220 222 227 230 231 224 223 229 232 232 225 226 231 239 242 243 249 249 251 255 258 261 267 270 274 278 281 284 286 284 287 291 287 286
209 216 214 222 217 230 210 213 207 217 218 220 229 226 228 236 235 233 233 233 237 221 226 234 244 248 251 252 252 255 258 263 268 273 277 279 284 288 286 284 283 291 293 284
204 214 209 214 218 219 185 189 203 203 214 221 221 227 230 227 228 229 234 239 239 241 244 235 237 238 245 249 251 257 265 271 274 281 282 285 280 279 290 293 271 281 287 286
206 211 203 202 184 188 187 189 205 198 199 209 204 209 213 218 215 216 224 228 235 236 235 235 237 239 239 247 255 267 270 278 275 272 273 278 275 282 284 273 283 291 291 294
206 210 208 197 180 180 173 172 186 198 199 195 199 211 210 200 205 211 227 228 230 228 231 240 245 247 250 255 266 271 270 265 264 262 265 279 267 277 279 286 287 290 292 302
209 211 216 213 185 176 182 171 151 158 174 202 203 196 204 211 224 230 230 225 216 219 232 233 242 259 265 262 255 254 254 255 258 262 256 268 283 280 280 285 286 297 298 297
211 219 221 226 231 223 213 194 176 166 163 180 191 200 207 209 210 207 211 216 220 223 233 238 236 240 245 253 260 263 269 275 273 277 276 274 279 285 288 292 292 293 292 292
210 218 218 227 232 239 243 239 225 201 177 180 184 192 191 202 211 221 232 235 243 250 255 258 257 244 246 255 253 261 267 271 269 268 268 271 276 278 281 285 288 291 292 294
187 201 212 224 230 237 244 253 255 258 238 212 218 202 205 215 226 243 260 267 264 253 245 240 243 253 251 251 255 258 260 262 265 268 271 277 279 282 284 286 289 290 291 293
175 174 211 220 226 229 235 239 249 253 263 252 257 270 251 246 252 252 254 249 255 239 246 242 246 254 255 254 255 255 257 260 264 268 271 275 279 282 285 288 289 291 293 293
174 178 198 204 208 213 221 233 237 242 241 242 241 241 239 234 232 245 238 235 240 247 242 244 245 247 249 255 260 262 264 268 271 274 277 280 283 285 287 290 290 289 291 292
188 192 186 200 195 206 208 208 221 219 227 237 243 233 232 230 225 223 231 236 235 238 239 243 247 251 254 256 261 265 269 272 274 278 281 284 287 289 290 288 289 292 292 291
191 199 209 210 203 198 202 200 201 206 203 213 218 217 226 222 225 222 229 233 230 230 231 234 236 243 251 259 268 274 278 281 284 286 287 288 288 287 287 290 292 292 296 300
210 206 220 226 227 206 203 203 201 200 201 206 207 212 219 220 220 217 217 220 223 224 225 231 239 247 259 269 276 282 285 284 284 284 285 286 285 288 291 293 297 300 302 301
217 222 226 226 221 216 209 208 206 199 195 197 200 200 207 210 216 215 219 223 228 233 238 244 253 263 271 278 279 278 278 279 280 281 285 288 290 293 296 299 301 300 300 300
218 219 219 220 220 223 210 208 203 201 203 206 204 205 206 214 221 225 229 232 233 240 250 259 267 273 272 272 273 273 278 282 283 285 290 292 294 297 298 296 296 297 299 300
218 220 217 217 217 216 208 204 204 201 205 203 208 212 216 220 227 234 239 248 255 258 261 266 269 271 274 278 279 280 281 277 285 290 291 292 293 293 295 297 298 299 300 301
222 220 218 214 213 215 212 211 208 206 209 212 215 221 226 230 235 241 246 250 256 261 265 268 267 267 268 270 273 276 279 281 283 288 291 294 295 296 298 297 298 299 301 304
217 216 219 216 208 207 210 214 216 214 214 217 223 227 231 237 243 248 252 256 260 259 257 259 261 266 273 278 280 283 284 283 285 289 292 294 295 295 296 297 300 304 307 309
201 208 213 215 202 207 209 214 221 222 223 223 228 232 236 240 247 253 256 255 255 256 260 266 271 274 277 279 277 277 281 284 287 291 292 293 294 295 299 302 306 309 310 309
140 174 207 213 208 212 213 218 222 227 232 235 239 243 245 247 249 251 254 258 261 265 268 270 272 275 276 273 275 282 288 290 290 290 294 295 297 298 301 305 308 309 309 309
100 112 142 182 203 215 234 235 230 237 241 242 240 238 240 241 243 246 253 261 265 267 268 272 272 271 274 279 283 284 288 291 292 294 296 296 299 302 304 305 306 308 308 308